Theta_e
318 319 320 319 319 319 319 319 319 320 320 320 320 320 321 320 320 320 320 320 320 320 320 320 320 320 320 321 325 326 318 317 342 349 352 352 352 351 351 348 347 346 345 344
320 319 319 320 320 319 319 319 319 319 320 320 320 321 321 322 321 321 320 320 320 320 319 319 319 320 320 320 321 325 329 324 326 343 348 349 349 352 351 351 348 347 347 347
320 320 318 318 318 318 318 318 319 320 320 320 321 322 324 324 322 321 320 320 320 320 320 319 319 319 320 320 321 322 324 329 329 343 346 349 351 351 351 350 350 349 347 348
319 319 317 318 318 319 320 320 320 320 321 322 323 324 324 323 323 323 321 321 321 320 320 319 319 319 321 322 322 322 323 324 329 330 342 345 349 350 349 349 350 350 349 347
319 319 319 319 320 320 320 320 320 321 322 323 323 324 324 324 323 322 321 319 319 319 319 320 320 321 321 321 322 322 322 322 323 329 334 342 345 347 348 349 348 348 348 345
320 319 319 320 320 319 320 320 321 321 322 324 324 325 324 323 321 320 320 320 319 320 321 321 320 320 321 321 321 322 323 324 324 328 331 339 341 344 346 347 346 347 348 347
319 319 320 319 320 321 321 323 324 324 325 325 323 320 321 320 320 320 320 319 320 320 320 320 320 320 320 321 321 322 323 326 326 325 333 336 341 342 346 343 343 346 348 348
320 322 321 320 320 321 321 322 325 326 324 324 323 320 319 319 319 319 319 320 319 319 319 319 319 320 320 320 321 322 323 325 328 325 329 337 339 342 343 345 342 345 345 345
319 320 320 319 319 319 320 320 321 323 321 320 319 319 319 320 320 319 318 317 317 318 318 318 318 318 319 319 320 321 322 323 327 327 327 333 337 340 341 344 343 346 337 336
320 322 321 320 319 319 319 318 321 321 322 323 318 317 317 320 319 317 317 317 316 315 316 317 317 317 317 318 318 319 320 322 323 327 328 330 338 337 340 341 341 340 343 337
319 320 321 318 318 318 319 320 318 318 320 323 321 318 318 318 318 317 318 317 316 317 317 317 316 316 316 317 317 317 319 321 322 324 327 330 334 337 337 337 336 337 343 339
319 319 321 319 319 317 317 317 318 322 322 319 320 319 318 317 317 317 316 316 316 316 317 316 316 316 316 316 316 316 316 318 320 321 324 328 330 332 333 333 323 324 335 336
318 320 320 320 319 318 317 315 315 317 318 319 322 319 317 317 317 316 316 316 316 317 316 316 316 315 315 315 314 314 315 316 316 319 320 321 326 329 330 329 329 329 330 330
315 320 321 322 321 320 318 316 316 317 319 319 319 318 317 317 317 316 316 317 316 316 316 316 315 314 313 313 313 313 313 314 315 315 318 320 320 325 326 329 328 328 327 327
316 320 319 318 319 318 317 315 315 316 316 317 316 316 316 316 316 317 316 316 316 315 314 314 313 313 313 313 313 313 313 313 313 314 315 316 320 319 324 327 327 327 325 324
315 319 317 319 317 316 315 315 315 315 315 315 315 315 316 317 317 316 316 315 314 313 313 312 312 312 312 313 313 312 313 312 313 313 313 315 315 319 319 320 325 327 326 325
316 318 318 317 316 316 315 314 315 314 315 316 316 317 317 317 317 315 314 313 313 312 312 312 311 310 310 310 310 310 310 310 311 311 313 313 314 315 318 318 319 324 327 326
316 316 316 320 316 316 315 317 317 317 316 316 317 317 317 316 314 313 313 312 311 310 310 309 308 307 306 306 306 304 306 306 308 308 310 311 313 314 315 316 317 318 323 325
316 315 316 316 315 315 315 318 318 317 317 317 318 317 315 313 313 312 311 310 309 308 308 306 305 304 303 302 302 303 302 304 304 304 306 308 310 312 314 313 316 317 319 323
315 315 316 315 318 317 320 317 315 315 317 317 316 315 314 312 314 313 310 308 308 307 305 304 303 302 302 302 301 301 302 302 302 302 304 306 308 309 310 314 312 313 316 318
317 316 315 314 317 316 318 316 315 317 320 315 313 312 312 313 312 310 308 307 306 304 303 302 301 301 301 300 299 299 300 300 301 302 303 303 304 307 308 311 314 312 312 315
318 317 318 317 318 320 316 316 317 317 314 313 312 311 311 309 309 308 308 306 305 303 301 300 299 299 298 298 298 298 298 299 299 300 300 301 302 304 305 307 310 314 313 314
321 319 319 318 318 317 316 315 314 314 313 312 311 310 309 309 309 308 307 305 303 301 299 298 297 297 298 298 298 298 299 299 299 299 299 299 300 300 301 305 308 311 315 315
315 315 318 317 316 315 314 314 313 313 311 310 309 309 309 309 308 307 305 303 301 299 297 297 297 297 297 298 299 301 302 302 300 300 300 300 299 300 300 303 307 308 313 316
312 315 315 316 315 314 314 313 312 311 310 309 309 308 308 308 308 305 303 301 299 297 296 296 296 296 297 298 300 302 303 302 301 300 300 300 300 300 300 301 304 307 311 314
312 312 315 316 314 314 313 312 311 310 308 308 308 308 308 307 306 304 302 299 298 296 296 296 295 296 297 299 301 303 304 303 301 301 300 299 299 299 300 301 302 305 308 311
Wind_Speed
14 10 12 15 13 15 10 13 11 8 4 9 14 16 16 16 19 20 20 19 19 17 17 18 18 19 20 19 16 18 22 21 26 28 27 29 30 30 32 35 34 33 36 34
9 12 14 7 6 7 11 13 14 12 10 10 14 17 16 17 20 23 22 19 21 20 20 20 19 20 20 21 22 19 18 21 25 35 35 36 33 31 32 32 35 38 37 34
14 3 4 6 10 12 14 14 13 12 10 12 18 21 21 16 13 12 13 17 17 19 20 22 22 23 21 21 22 24 24 20 22 30 29 32 30 34 31 36 34 36 39 36
12 14 8 9 10 11 13 7 9 8 12 14 14 15 18 17 15 14 15 14 13 15 16 19 21 20 17 18 18 20 23 26 23 23 32 33 34 34 39 38 34 35 39 40
15 9 10 11 11 5 10 13 9 14 16 18 19 12 15 15 14 5 11 15 18 21 17 16 16 18 19 20 20 21 24 28 28 24 29 37 40 35 31 32 33 35 33 34
19 2 6 10 7 6 10 12 16 18 15 15 20 17 11 4 11 11 13 18 13 17 15 15 14 13 14 17 19 21 23 26 26 27 26 35 42 41 35 36 35 34 34 32
17 20 18 15 11 13 11 12 11 13 12 14 3 7 9 15 8 6 8 12 14 14 16 17 16 20 18 20 21 22 22 23 24 27 27 31 39 43 41 37 35 33 30 29
11 11 8 2 7 13 15 11 8 12 13 16 20 9 1 5 2 5 6 5 13 14 15 17 18 18 21 22 21 22 22 23 23 24 27 29 38 40 45 43 35 38 29 30
4 10 1 5 6 7 7 8 5 10 12 13 14 15 12 9 6 5 7 7 9 15 17 19 21 20 20 21 21 21 23 24 24 22 27 29 35 37 42 43 42 33 40 38
6 12 15 8 6 10 9 12 7 6 5 8 7 10 7 6 5 11 9 9 14 15 19 17 20 20 21 21 21 20 20 21 22 21 21 25 26 33 39 44 46 54 53 35
10 11 14 7 10 14 7 11 9 7 7 5 8 5 9 10 11 12 13 16 21 21 19 20 21 22 22 23 22 21 21 19 19 19 18 20 22 22 30 38 44 36 19 29
9 6 12 15 14 6 9 13 11 9 9 9 12 14 12 1 10 13 15 17 21 19 20 22 23 24 25 24 23 22 21 19 17 16 14 16 16 19 23 16 14 25 22 28
3 7 10 10 16 11 11 14 12 11 11 15 13 12 14 14 15 17 19 19 19 20 22 23 26 26 25 25 25 24 23 22 20 17 15 13 16 18 18 17 19 24 22 23
5 11 12 9 2 6 9 10 14 14 11 15 17 21 17 16 16 18 22 20 24 26 27 28 28 29 31 31 29 28 26 25 24 21 18 15 14 15 19 18 18 20 21 20
5 14 15 16 19 18 18 16 15 18 18 18 20 22 21 20 18 17 18 22 27 31 31 32 34 35 36 34 32 30 30 28 27 26 24 21 17 15 15 17 18 17 17 20
7 10 13 15 18 20 18 18 19 21 20 21 22 23 20 13 20 21 26 29 31 34 38 38 38 35 34 33 33 35 33 33 33 33 32 28 25 22 17 14 18 22 23 22
8 7 6 14 15 17 12 17 17 20 18 15 15 16 17 16 18 23 30 35 36 37 35 34 37 39 41 42 42 40 40 39 39 39 38 35 31 27 25 18 16 21 26 26
9 8 7 7 10 13 15 5 5 8 9 12 14 13 16 19 28 34 33 32 33 37 41 43 42 47 49 48 46 51 41 41 41 40 37 40 36 34 28 37 25 23 24 30
19 11 5 7 10 13 12 2 1 5 12 13 10 14 22 28 33 31 25 27 36 39 41 48 48 48 50 48 46 44 48 39 44 48 43 37 43 38 34 31 48 32 19 21
19 15 10 10 5 7 5 6 1 7 12 9 15 17 19 27 17 17 36 38 40 41 42 48 48 49 46 44 42 42 43 45 42 43 41 39 38 42 41 33 37 56 39 26
10 11 13 12 10 8 2 4 5 7 5 18 20 23 25 17 20 39 40 42 39 45 47 47 46 45 43 42 39 39 42 43 41 39 41 42 47 39 45 39 31 41 50 50
9 8 8 11 6 9 4 5 4 11 16 19 22 24 27 29 33 37 39 42 44 50 48 46 45 43 43 39 37 37 37 37 36 37 39 44 49 53 42 37 41 31 36 53
4 9 3 5 3 3 1 4 8 7 14 19 23 25 26 30 35 39 43 40 50 46 47 44 43 44 42 37 35 36 34 32 30 32 35 36 37 36 47 42 38 30 35 36
6 9 4 5 2 2 2 6 3 11 16 18 21 25 27 31 36 40 41 47 47 46 46 46 42 40 41 35 28 26 27 28 27 31 36 34 32 37 35 46 34 36 35 38
7 1 6 9 8 6 1 4 9 15 15 19 21 24 27 31 36 40 41 46 45 46 45 41 39 38 37 32 30 21 21 27 22 22 23 27 35 30 32 42 46 37 34 36
11 8 5 6 7 7 9 11 13 14 18 19 23 28 28 29 35 38 42 44 45 46 44 42 40 36 32 31 24 22 24 26 23 23 22 23 27 27 27 29 38 52 32 38
Wind_Direction
201 225 220 235 222 272 326 297 295 282 251 282 273 273 278 279 275 269 268 273 272 264 260 262 259 262 268 274 282 287 277 258 235 234 230 231 227 224 228 217 217 217 229 235
204 235 255 251 288 264 254 259 257 255 254 261 272 272 273 272 270 270 270 274 273 274 275 272 269 270 268 271 281 285 283 272 254 233 230 228 228 222 225 226 220 215 217 220
245 43 51 262 223 240 236 256 265 274 300 286 268 260 248 247 259 254 246 254 267 271 277 279 278 275 274 277 278 283 286 285 261 247 237 235 229 221 218 220 220 223 220 224
238 247 187 211 239 220 258 245 287 274 269 277 319 293 284 267 253 249 252 272 288 291 303 298 288 289 298 306 295 289 286 285 282 261 241 236 230 223 223 220 220 218 222 220
227 215 214 240 244 258 275 320 287 278 279 279 272 265 272 279 264 279 358 334 323 303 309 328 315 308 306 301 298 292 288 285 284 272 244 238 236 234 229 220 219 220 224 225
271 250 257 273 313 294 299 286 270 268 266 263 263 258 268 298 9 356 346 322 311 318 315 307 301 297 300 306 307 307 301 287 278 273 259 243 232 235 231 226 221 217 215 225
240 239 235 220 263 259 225 270 271 261 241 248 14 318 297 317 42 2 317 312 313 313 308 302 304 304 306 300 304 309 314 305 283 269 264 246 243 231 232 229 225 215 212 211
292 261 321 116 263 292 292 291 271 290 286 300 328 299 156 119 96 162 296 329 318 319 317 313 310 309 309 308 306 309 320 317 301 271 258 253 243 238 232 229 227 226 212 205
270 259 92 267 284 262 329 238 309 296 289 269 258 251 225 129 203 154 250 322 317 304 313 306 306 305 303 309 308 310 313 321 317 284 265 254 250 240 234 232 223 224 211 221
264 278 260 223 251 247 264 312 272 234 262 279 285 322 284 10 4 303 323 315 285 304 298 302 305 302 302 300 303 309 314 315 319 311 274 262 255 251 240 233 227 223 203 201
249 249 269 250 223 254 179 237 224 267 230 241 291 270 18 3 348 331 321 300 305 317 310 306 302 303 300 300 301 305 311 309 317 316 294 273 260 258 251 245 240 239 188 188
271 265 253 254 276 322 304 292 265 217 243 237 246 269 282 269 254 259 288 305 312 308 308 301 301 302 299 299 299 301 303 310 307 316 306 287 280 256 252 248 264 241 195 196
257 237 249 258 240 213 248 244 241 258 260 268 276 276 282 288 283 307 307 312 320 306 297 298 301 299 300 299 299 300 297 298 302 302 304 296 270 262 254 226 210 202 200 196
297 258 256 257 196 215 235 240 256 247 246 253 250 267 291 302 314 310 303 314 301 296 298 299 299 298 298 296 294 293 294 294 292 291 291 284 285 267 254 244 218 203 199 197
222 263 262 274 276 279 272 269 256 248 256 264 278 288 299 303 303 309 313 313 314 310 304 300 299 297 295 293 291 288 287 287 286 283 279 276 267 271 268 245 235 226 215 199
216 260 269 267 267 268 267 265 261 264 265 268 275 279 278 318 312 326 329 316 307 308 307 302 301 305 303 298 294 294 292 287 287 277 271 268 267 254 254 266 245 225 222 211
255 247 250 259 261 267 268 262 257 244 252 271 283 309 327 318 335 326 316 311 307 303 305 311 307 305 301 298 295 292 289 286 282 276 272 260 257 256 243 238 247 238 230 214
262 261 244 270 282 263 266 94 334 313 295 278 282 294 339 335 319 310 309 312 316 312 310 306 304 302 297 295 288 291 282 279 275 268 270 261 256 247 249 230 237 247 231 223
233 233 265 254 262 260 260 145 335 358 307 311 352 343 326 318 314 303 320 319 312 308 304 299 298 298 297 296 293 287 287 272 270 271 267 262 259 258 242 241 225 235 237 236
213 227 245 267 264 258 96 141 5 303 271 36 344 327 321 323 310 312 323 314 311 310 308 305 301 299 297 296 295 288 280 277 270 267 255 253 247 250 257 239 237 229 231 233
207 202 225 238 247 275 51 19 306 262 8 333 331 324 322 317 312 309 312 310 312 312 311 309 306 301 300 301 299 289 285 280 276 270 262 252 246 245 249 243 235 233 230 227
197 197 217 232 244 246 93 273 310 352 331 331 324 324 322 315 312 312 312 317 318 316 315 314 312 308 308 307 304 296 288 285 278 272 263 254 250 240 242 253 234 230 228 226
233 222 244 219 232 121 267 301 326 311 320 326 322 322 320 315 313 318 319 322 320 317 318 319 317 315 316 313 308 300 298 299 286 274 267 258 252 243 241 233 238 231 218 213
245 237 242 294 13 92 228 322 300 323 323 320 321 322 321 319 319 320 323 321 320 321 322 325 320 318 317 324 324 323 323 316 297 284 274 267 246 242 238 224 222 227 218 208
296 217 264 270 278 325 56 25 335 323 321 322 325 325 323 322 322 324 323 323 323 325 327 327 325 322 324 330 331 329 322 318 312 294 275 258 248 237 231 228 216 217 221 217
274 269 282 300 355 313 318 338 326 327 326 328 328 326 327 328 325 327 327 328 328 332 335 332 333 334 332 334 328 328 330 337 330 312 298 257 232 227 221 222 222 216 214 215